📊 Raw Sensor Data
Showing records 45476 to 45500 of 85,054 total
| ID | Distance (ft) | Battery V | Battery A | Int Temp (°F) | Int Humid (%) | Ext Temp (°F) | Solar V | RSSI | SNR | Time Stamp |
|---|---|---|---|---|---|---|---|---|---|---|
| 39591 | -- | 4.02 | 0 | 85 | 44 | 77 | 5.10 | -72 | 9 | 05/03/2025 04:45 PM |
| 39590 | -- | 4.02 | 0 | 85 | 44 | 74 | 5.10 | -75 | 9 | 05/03/2025 04:30 PM |
| 39589 | -- | 4.02 | 0 | 85 | 43 | 78 | 5.10 | -72 | 9 | 05/03/2025 04:15 PM |
| 39588 | -- | 4.02 | 0 | 84 | 43 | 77 | 5.10 | -74 | 9 | 05/03/2025 04:00 PM |
| 39587 | 15.4 | 4.02 | 0 | 85 | 42 | 76 | 5.10 | -75 | 8 | 05/03/2025 03:45 PM |
| 39586 | -- | 4.02 | 0 | 86 | 41 | 78 | 5.10 | -75 | 8 | 05/03/2025 03:30 PM |
| 39585 | 15.4 | 4.06 | 0 | 85 | 41 | 78 | 5.10 | -74 | 8 | 05/03/2025 03:15 PM |
| 39584 | 15.4 | 4.06 | 0 | 84 | 40 | 77 | 5.10 | -75 | 8 | 05/03/2025 03:00 PM |
| 39583 | 15.3 | 4.07 | 0 | 81 | 42 | 77 | 5.10 | -74 | 7 | 05/03/2025 02:45 PM |
| 39582 | 15.3 | 4.02 | 0 | 80 | 42 | 71 | 5.10 | -73 | 8 | 05/03/2025 02:30 PM |
| 39581 | 15.3 | 4.02 | 0 | 82 | 40 | 74 | 5.10 | -72 | 8 | 05/03/2025 02:15 PM |
| 39580 | 15.4 | 4.02 | 0 | 81 | 40 | 73 | 5.10 | -73 | 7 | 05/03/2025 02:00 PM |
| 39579 | 15.3 | 4.02 | 0 | 81 | 40 | 73 | 5.10 | -76 | 7 | 05/03/2025 01:45 PM |
| 39578 | 15.3 | 4.02 | 0 | 79 | 40 | 74 | 5.10 | -74 | 7 | 05/03/2025 01:30 PM |
| 39577 | 15.3 | 4.02 | 0 | 78 | 40 | 71 | 5.10 | -72 | 8 | 05/03/2025 01:15 PM |
| 39576 | 15.3 | 4.02 | 0 | 76 | 41 | 71 | 5.10 | -74 | 7 | 05/03/2025 01:00 PM |
| 39575 | 15.3 | 4.02 | 0 | 75 | 41 | 71 | 5.10 | -72 | 8 | 05/03/2025 12:45 PM |
| 39574 | -- | 4.02 | 0 | 75 | 41 | 68 | 5.10 | -77 | 8 | 05/03/2025 12:30 PM |
| 39573 | -- | 4.02 | 0 | 74 | 41 | 70 | 5.10 | -74 | 7 | 05/03/2025 12:16 PM |
| 39572 | 15.3 | 4.02 | 0 | 74 | 41 | 70 | 5.10 | -74 | 6 | 05/03/2025 12:00 PM |
| 39571 | 15.3 | 4.02 | 0 | 73 | 41 | 70 | 5.10 | -74 | 8 | 05/03/2025 11:45 AM |
| 39570 | 15.3 | 4.02 | 0 | 73 | 40 | 73 | 5.10 | -73 | 7 | 05/03/2025 11:30 AM |
| 39569 | 15.3 | 4.04 | 0 | 71 | 40 | 68 | 5.10 | -74 | 7 | 05/03/2025 11:15 AM |
| 39568 | 15.2 | 4.02 | 0 | 68 | 41 | 67 | 5.10 | -74 | 8 | 05/03/2025 11:00 AM |
| 39567 | 15.3 | 4.02 | 0 | 67 | 41 | 67 | 5.10 | -74 | 8 | 05/03/2025 10:45 AM |